Theta_e
299 300 300 299 299 299 299 297 298 299 299 300 300 301 305 311 312 308 307 308 307 309 312 308 305 308 308 306 306 306 307 311 312 311 311 311 311 311 312 312 311 312 312 311 311 310 311 311 311 312 310 308 309 310 311 309 308 309 309 307 308 309 309 308 308 309 308 306 306 307 306 307 310 312 312 311 311 312 311 314 318 317 317 320 318 319 322
299 299 300 299 299 299 299 298 297 298 299 299 300 303 304 304 305 306 306 307 308 309 310 308 306 305 303 303 305 305 306 309 310 308 308 309 311 313 312 312 311 311 312 311 310 310 310 311 311 311 310 309 310 311 310 310 310 310 311 309 309 310 309 308 309 310 311 309 309 310 309 309 312 317 316 312 311 310 310 314 316 316 318 319 320 323 322
299 299 299 299 299 299 300 299 298 298 299 300 301 302 302 302 303 304 303 304 307 308 307 306 305 303 301 302 305 306 306 307 307 306 306 308 310 310 310 311 311 311 311 310 309 308 309 310 311 311 311 310 310 312 311 310 310 310 309 309 309 310 310 308 309 312 313 312 311 312 312 312 314 318 316 313 312 310 310 313 314 316 320 320 321 323 319
299 299 299 299 298 298 299 299 298 298 299 300 301 300 302 306 308 307 305 304 306 306 304 303 302 302 301 303 306 305 304 304 304 304 306 307 307 306 310 312 311 310 309 306 306 306 308 311 312 312 312 310 310 311 311 310 310 309 309 309 308 310 311 309 309 311 312 312 312 312 313 314 315 316 316 315 313 310 310 313 316 321 323 321 320 320 318
299 299 299 299 298 298 299 299 298 299 299 300 301 301 302 306 307 305 303 304 306 305 303 301 300 301 301 303 304 304 304 303 303 304 304 304 304 305 310 311 307 307 306 304 305 306 306 310 312 312 312 310 309 309 309 311 312 311 310 310 310 312 312 310 309 310 310 309 310 310 310 311 313 314 314 315 313 311 310 313 319 323 322 319 320 320 319
299 299 299 299 298 298 299 299 299 299 299 299 301 303 302 302 303 300 299 302 306 304 303 301 300 300 301 302 303 304 303 302 302 302 303 302 304 306 308 307 305 304 304 304 305 306 307 310 311 311 312 310 309 309 311 313 314 312 311 309 311 313 314 312 311 311 310 310 310 310 309 310 311 312 313 313 312 312 311 313 319 323 320 320 323 322 319
299 299 299 299 298 299 299 299 299 299 299 299 301 303 302 300 301 301 299 300 302 301 301 301 300 302 303 303 304 303 302 302 301 301 301 302 303 305 306 306 305 304 303 303 305 306 308 310 309 309 310 309 308 310 313 314 314 314 312 311 311 313 314 315 312 312 313 313 313 312 311 313 313 313 313 313 313 314 313 314 319 320 321 325 324 322 321
299 299 299 299 298 299 300 299 298 299 299 299 300 301 302 301 301 301 299 300 300 300 301 300 300 303 304 303 303 302 301 302 301 300 301 302 303 304 305 305 304 303 303 303 305 306 307 308 307 307 308 307 308 312 315 315 315 314 313 313 312 313 315 315 312 312 315 315 315 315 313 314 316 316 316 315 315 317 315 316 319 319 319 324 323 323 324
299 298 299 299 298 299 300 298 298 298 298 299 299 299 300 300 300 300 300 302 301 300 301 300 301 304 304 303 303 302 301 302 300 300 301 302 303 304 304 304 303 302 303 304 305 306 305 306 306 305 306 306 307 310 313 313 314 314 312 313 313 313 315 314 312 314 316 316 316 316 314 313 315 318 318 316 316 318 317 319 322 319 317 320 321 322 323
298 298 299 299 298 299 299 299 298 298 298 298 298 298 299 299 300 300 299 301 302 301 301 300 301 304 304 302 301 301 301 301 300 301 302 301 303 303 303 303 302 302 304 306 306 305 304 304 304 304 304 304 305 306 308 309 311 313 313 314 314 313 313 314 314 316 318 316 315 315 315 315 316 318 317 316 317 319 321 322 324 322 319 321 322 322 323
299 298 298 299 299 299 299 299 298 298 299 298 297 298 298 298 300 299 299 302 303 300 300 301 301 302 302 301 300 300 300 300 300 300 301 301 302 302 301 301 302 303 305 305 305 303 302 302 303 303 304 305 305 305 306 307 308 310 312 315 315 313 312 313 314 316 319 318 315 314 315 316 319 319 316 314 316 319 321 323 322 321 321 323 325 324 325
300 299 298 298 299 299 299 299 298 298 299 299 298 298 298 298 299 299 300 303 302 299 300 301 301 301 300 300 299 299 299 300 300 300 300 301 301 301 301 302 303 304 304 304 302 302 304 308 310 310 310 310 309 307 308 309 310 310 311 313 315 315 314 313 314 316 319 318 317 318 319 318 318 318 316 315 316 318 319 320 319 319 320 324 325 324 324
300 299 298 298 298 299 299 299 298 298 299 299 299 298 298 298 299 300 301 301 301 300 301 301 300 300 300 299 299 299 299 300 300 300 300 300 300 301 301 302 303 303 302 302 301 303 310 316 318 317 316 315 314 313 313 315 316 315 313 311 313 316 316 314 315 317 318 318 319 320 318 317 316 317 317 317 317 318 320 321 322 321 321 323 323 322 322
300 300 299 299 298 299 299 298 298 298 298 299 299 299 299 299 299 300 300 300 300 300 300 300 301 300 300 300 299 299 299 299 300 301 301 301 301 302 302 301 302 301 301 301 304 308 313 317 318 317 316 316 318 318 317 317 318 317 316 314 313 315 316 315 316 318 317 318 321 320 317 317 318 317 318 316 315 316 318 321 323 322 320 321 321 320 320
300 300 299 299 299 299 299 299 298 298 298 299 299 299 299 299 299 299 300 300 299 299 299 301 302 301 300 300 299 299 299 299 299 301 301 301 301 302 302 301 300 300 300 304 309 312 313 315 317 318 317 317 317 318 317 316 315 315 316 317 314 314 317 316 315 317 318 319 321 320 320 322 321 319 318 317 316 316 315 319 324 323 321 321 320 319 319
300 300 299 299 299 299 299 299 298 298 298 299 299 299 299 299 299 299 299 299 299 301 301 301 301 300 299 299 299 299 300 300 300 301 301 301 301 301 300 299 300 301 303 307 311 311 312 314 315 317 318 316 316 317 318 317 316 315 315 316 313 313 315 315 313 317 320 319 319 322 323 322 321 319 318 318 318 316 314 319 325 323 321 322 320 319 318
300 300 300 300 299 299 299 299 298 298 298 298 299 299 299 300 299 298 298 298 299 300 300 299 299 300 300 300 300 300 301 301 301 301 301 301 301 300 299 300 301 303 305 309 310 309 311 312 313 316 318 315 315 317 316 316 317 316 315 315 315 316 317 316 314 318 320 318 319 322 322 320 318 318 317 317 317 315 316 323 325 321 320 322 322 320 318
301 300 300 300 299 299 298 298 298 298 298 298 299 299 299 300 300 299 299 298 298 299 299 299 300 300 300 300 300 300 301 301 301 301 301 300 301 301 300 301 303 303 305 309 311 310 310 310 311 314 316 314 313 315 315 316 317 316 315 316 316 316 318 316 315 317 319 319 319 321 321 320 319 319 319 318 316 315 319 324 323 320 321 322 322 321 320
301 301 300 300 299 299 298 298 298 298 298 298 298 299 299 300 300 299 299 298 298 299 299 299 299 299 299 299 299 300 300 300 301 301 301 301 301 300 300 301 302 303 305 307 309 310 310 309 310 313 314 313 313 314 315 316 315 314 316 317 316 316 317 317 317 318 319 318 318 320 320 319 318 319 320 319 318 319 321 321 320 320 322 322 321 322 321
302 302 301 300 300 299 299 299 298 299 299 299 298 298 299 299 299 299 299 299 299 299 299 299 299 299 298 298 299 300 300 300 300 300 301 301 300 299 303 306 304 302 305 307 308 308 309 309 310 311 312 313 313 314 314 314 313 314 315 316 315 315 317 319 318 317 317 318 319 321 320 318 317 318 319 318 319 320 320 320 319 320 322 322 322 321 321
304 303 302 301 300 299 299 299 299 299 299 299 298 298 299 299 299 299 299 299 299 300 300 299 299 299 299 298 298 299 299 299 300 300 300 300 300 300 304 306 302 301 305 307 308 309 309 310 310 311 311 312 313 314 314 314 315 315 315 314 315 316 317 318 318 316 318 320 320 321 320 318 317 318 318 318 319 319 320 320 320 320 321 322 322 321 321
305 304 303 302 301 300 299 299 299 299 299 299 298 298 299 299 299 299 299 299 299 300 300 300 299 299 299 299 298 298 298 298 299 299 299 299 300 300 301 302 301 300 303 307 308 308 308 308 309 308 308 311 313 313 314 315 316 316 314 314 316 317 317 317 317 316 318 320 319 319 319 317 317 318 318 318 319 319 320 320 320 321 321 322 322 321 321
307 305 304 303 302 300 299 299 299 299 299 299 299 299 299 299 298 298 299 300 300 300 299 298 298 299 299 299 299 299 299 298 298 298 298 298 299 299 299 300 300 300 302 305 306 305 306 307 308 308 309 311 313 313 314 315 316 316 315 314 316 318 317 317 318 318 319 319 318 318 318 317 318 319 319 319 319 320 320 320 320 321 321 320 321 321 320
309 307 305 304 302 301 299 298 298 299 299 299 299 299 299 299 299 299 300 300 299 299 299 298 298 300 301 301 300 299 300 299 299 299 299 298 299 300 300 300 300 301 304 305 303 304 306 306 307 309 310 310 312 314 314 314 315 316 315 314 315 316 316 315 317 317 318 319 319 317 317 318 318 319 320 319 319 319 320 320 320 320 320 320 320 320 319
308 307 306 304 303 301 300 299 299 298 298 298 299 299 299 299 299 300 300 300 299 298 299 299 299 299 300 300 299 300 300 300 300 300 299 298 299 300 301 301 300 301 304 303 302 303 305 305 306 308 308 308 311 314 314 314 314 314 314 314 314 314 313 314 315 315 316 318 318 316 316 319 320 320 320 319 318 319 319 319 319 319 319 319 319 319 319
307 306 306 304 303 302 301 300 299 298 298 299 299 299 299 299 299 300 300 300 299 298 298 299 300 300 299 299 300 300 300 300 300 300 300 299 299 299 300 300 300 300 300 300 301 302 303 303 305 306 307 308 311 314 314 313 313 313 314 313 312 311 312 312 312 313 315 317 316 315 316 319 320 320 319 319 318 318 319 319 318 318 318 318 319 319 319
307 306 305 305 304 303 301 300 299 298 298 299 299 299 299 299 299 300 300 300 300 300 300 300 300 299 299 299 300 300 299 299 299 299 300 300 300 300 299 299 300 300 299 300 302 302 302 304 306 306 307 309 309 311 312 312 312 314 314 312 310 311 311 310 310 313 316 315 314 315 316 318 319 319 319 318 317 317 319 319 319 318 317 317 319 320 319
306 306 305 305 304 303 302 301 300 299 298 299 299 299 299 299 299 300 300 299 300 300 300 300 299 299 300 300 300 299 299 299 299 299 299 299 299 299 299 299 299 300 299 300 302 303 304 307 308 307 308 309 309 311 313 313 313 314 313 310 309 310 309 308 310 312 314 313 313 314 315 317 318 318 318 318 317 317 318 319 318 318 318 317 318 319 318
306 305 305 304 304 303 302 301 300 299 298 299 299 299 299 299 299 300 300 299 298 298 299 299 299 300 301 301 299 298 298 299 298 298 298 298 298 298 298 298 299 299 300 301 302 304 306 308 309 308 308 309 310 312 313 314 314 313 311 309 308 308 307 307 309 311 312 312 312 313 314 316 317 317 318 318 317 316 316 317 317 319 320 319 318 318 318
306 305 305 304 304 303 303 302 301 299 299 299 299 298 299 300 299 300 300 299 298 298 299 299 299 299 299 299 299 298 298 298 298 298 298 297 297 297 297 298 299 299 300 302 303 304 306 308 308 309 309 308 310 312 313 312 312 312 310 308 307 306 306 305 307 309 311 311 310 311 314 316 316 316 317 317 315 314 316 317 318 319 320 319 318 319 318
305 305 305 304 304 303 302 302 301 300 299 299 299 300 301 301 301 300 299 299 298 298 298 298 298 298 298 299 298 298 298 298 298 298 298 297 298 297 297 298 299 299 300 303 303 304 306 308 310 313 311 308 310 314 312 310 311 310 308 306 306 306 305 304 305 307 308 307 308 311 314 315 315 315 316 315 314 313 315 318 319 319 319 319 319 319 318
305 305 304 304 304 303 302 302 301 300 299 299 300 301 301 301 300 300 299 299 299 298 298 298 299 299 300 299 298 297 298 298 299 299 300 301 302 300 298 299 300 300 301 303 305 306 308 310 310 311 310 309 312 314 312 309 310 309 306 306 305 305 303 303 304 305 304 304 306 311 313 313 312 312 313 314 313 313 315 318 317 315 315 316 316 315 315
305 305 304 304 304 303 302 302 301 300 300 299 299 300 300 300 300 300 300 300 299 298 298 299 299 300 299 299 299 299 299 301 303 304 305 305 304 303 302 301 301 301 302 304 306 308 308 308 309 309 310 309 311 313 311 309 308 307 306 305 305 303 302 302 303 303 302 302 304 309 311 311 310 311 312 313 313 313 314 315 314 313 314 315 316 315 315
305 304 304 304 303 302 303 302 301 301 300 299 299 300 300 300 300 299 300 300 299 298 298 298 299 300 299 299 302 302 299 302 305 307 308 307 303 302 305 304 302 303 305 306 307 308 307 307 309 312 311 309 308 309 309 307 305 304 304 304 304 303 302 301 301 301 301 300 303 306 308 308 309 310 310 312 312 312 313 314 313 313 314 315 315 316 316
305 304 304 303 303 302 302 301 301 300 300 299 300 300 300 300 300 299 300 300 299 299 299 298 299 300 298 301 306 304 299 302 305 305 307 306 303 302 306 305 304 305 304 304 308 309 307 308 312 313 310 308 307 307 307 305 303 303 303 303 302 302 301 300 300 300 299 300 302 304 305 306 307 308 309 310 311 312 314 315 313 312 313 313 314 314 315
304 303 303 303 302 302 301 301 300 300 300 300 300 300 300 300 300 299 299 299 299 300 300 298 299 299 298 301 305 302 300 304 307 305 306 306 303 305 308 308 307 308 305 305 311 312 308 308 312 311 308 307 307 305 304 303 302 302 301 301 301 300 300 299 299 299 299 300 302 303 302 303 305 307 308 309 309 311 314 315 314 313 313 313 313 315 316
303 303 303 302 301 300 300 299 299 300 300 300 300 300 300 300 300 299 298 299 299 299 299 299 300 299 298 300 301 300 300 305 306 306 309 309 305 306 309 308 308 310 307 307 311 312 309 309 310 309 308 307 305 303 302 301 301 301 300 300 300 299 298 298 298 298 298 300 301 301 301 301 302 304 306 308 308 310 312 314 313 313 313 312 312 314 314
303 302 302 300 300 300 300 300 299 300 300 300 300 300 300 300 300 300 299 299 300 300 299 299 300 299 298 299 300 300 301 303 304 306 310 310 306 306 309 308 307 308 308 307 308 309 311 311 310 308 307 306 303 301 301 301 301 301 300 299 299 298 298 297 297 297 298 299 300 299 299 300 300 301 303 306 308 309 311 312 311 312 313 312 310 310 313
302 301 300 299 300 301 301 300 300 300 300 299 299 300 299 298 300 300 299 299 300 300 299 299 300 299 299 299 299 299 299 301 304 306 308 309 307 306 308 308 307 307 308 307 308 310 313 312 309 308 307 305 303 301 300 300 301 301 300 299 299 298 297 296 296 296 297 297 297 297 297 298 299 299 301 304 306 307 309 310 310 310 311 310 307 307 312
301 300 299 299 300 300 300 300 301 301 300 299 299 299 299 299 300 300 299 299 299 300 300 299 299 299 298 299 300 300 299 301 304 306 306 308 307 305 305 306 305 305 307 308 309 312 314 311 309 309 307 304 302 301 300 300 301 300 299 299 299 298 297 295 295 296 296 295 295 295 295 296 297 297 299 301 303 303 305 307 308 307 308 307 305 305 308
300 299 299 300 300 300 300 300 300 300 300 299 299 299 300 300 299 298 298 299 300 299 298 298 300 301 300 298 299 301 300 301 303 303 303 307 308 304 303 305 305 304 307 308 308 310 312 310 310 309 306 302 301 300 299 300 300 299 298 298 298 297 296 294 293 294 295 295 294 294 294 294 295 296 297 298 299 300 301 302 303 303 304 306 306 305 305
300 300 300 300 300 300 300 300 300 300 300 300 300 301 300 299 299 298 299 301 303 302 300 300 302 305 303 298 298 301 301 301 301 301 302 306 307 304 304 307 307 305 306 306 306 309 311 310 309 307 304 301 301 300 298 299 299 297 297 298 298 296 295 293 292 293 294 294 293 293 293 294 294 295 296 297 297 297 298 298 299 299 301 303 305 304 304
301 301 300 301 300 300 301 301 300 300 300 300 301 302 301 300 300 300 301 302 302 301 301 301 302 302 301 299 300 302 301 300 300 302 303 305 307 306 306 308 307 305 304 304 305 308 310 309 307 306 302 300 300 299 297 297 297 296 296 297 297 295 293 291 291 292 293 293 293 293 293 293 293 294 295 295 295 295 295 296 296 297 300 302 303 302 303
300 300 300 301 300 300 301 302 301 301 302 301 302 303 303 303 302 302 303 305 304 302 303 305 304 302 302 302 301 302 301 300 300 301 303 304 305 306 307 308 308 306 305 304 305 307 307 306 305 303 301 299 299 297 296 296 296 296 296 296 295 293 291 290 291 291 292 292 292 292 292 292 293 293 294 294 294 294 294 294 295 296 297 299 300 300 300
300 300 300 302 301 301 302 303 301 302 303 302 301 302 304 305 305 304 303 305 304 302 302 305 304 302 304 305 302 301 303 303 301 302 303 303 304 305 306 309 310 309 306 306 306 307 306 306 304 301 300 299 298 296 296 296 295 295 295 294 293 291 290 290 290 290 291 291 292 292 292 292 292 292 293 293 293 293 293 293 293 294 295 296 296 296 297
300 300 301 302 302 301 301 302 302 302 303 302 302 302 303 304 306 306 304 304 304 303 304 305 304 303 305 305 302 302 305 304 301 302 304 303 303 305 305 305 307 308 308 306 306 306 306 305 302 300 299 298 297 296 295 295 295 294 294 293 292 291 290 289 289 290 290 291 291 291 292 291 291 292 293 293 293 292 292 293 293 293 293 293 294 294 295
300 300 300 302 302 301 301 302 303 304 304 304 303 303 302 302 303 304 303 303 303 303 303 303 302 302 303 302 300 303 306 304 301 303 304 301 302 306 307 304 304 307 309 308 306 306 305 303 301 299 298 297 296 296 295 294 293 293 293 292 291 291 290 289 289 289 290 291 291 291 291 291 291 292 292 292 292 292 292 292 292 292 292 292 292 292 293
301 300 300 303 303 301 301 303 303 303 304 304 303 301 300 298 299 301 303 303 303 303 303 303 302 303 304 303 301 302 304 303 302 303 304 302 302 306 308 307 304 304 305 306 306 305 303 301 299 298 297 296 295 295 294 293 292 292 292 292 291 291 290 289 289 289 290 290 291 291 291 291 291 291 292 292 292 291 291 292 292 291 291 290 290 290 290
300 299 300 301 302 302 302 303 302 302 303 302 301 300 300 299 301 302 301 301 302 303 303 303 302 302 303 303 301 301 302 302 301 301 303 305 305 305 306 308 308 306 305 304 304 303 302 300 298 297 296 295 294 294 293 292 292 292 292 292 291 291 291 290 289 289 290 290 291 291 291 291 291 291 291 291 292 291 291 291 291 291 290 290 289 289 289
299 300 300 301 302 303 303 301 300 302 303 301 301 302 302 303 304 303 298 299 303 305 302 302 303 302 301 301 302 302 302 303 302 302 304 306 305 303 305 308 309 307 305 303 303 302 300 299 297 297 295 294 293 293 292 292 292 292 292 292 292 291 291 291 290 289 290 290 290 291 291 291 291 291 291 291 291 291 291 291 290 290 290 289 289 289 289
298 299 301 301 302 304 303 301 302 304 303 301 303 304 302 303 307 304 297 299 306 307 302 302 304 303 301 302 303 302 301 301 301 301 302 302 301 302 306 308 308 306 305 303 302 300 298 297 296 296 295 293 293 293 292 292 292 292 291 291 291 291 291 290 290 289 289 289 290 290 290 291 291 291 291 291 291 291 291 290 290 290 290 289 289 289 288
299 300 301 301 300 301 301 300 301 303 302 301 302 303 301 303 306 303 298 300 306 305 301 302 304 303 302 302 303 301 301 301 301 302 303 302 301 303 306 307 305 304 303 302 300 298 297 295 295 294 293 292 292 292 291 291 291 291 291 291 291 291 291 290 289 289 289 289 289 289 289 290 290 291 291 290 290 290 291 290 290 290 290 289 289 289 288
Wind_Speed
21 21 22 23 25 26 27 28 29 33 35 31 24 12 3 2 0 4 8 7 6 5 3 2 2 1 2 3 4 5 3 3 4 4 3 1 0 1 1 2 2 3 4 2 5 6 5 6 4 3 5 5 9 9 3 1 1 3 3 2 4 3 1 3 4 4 5 7 6 5 3 1 2 4 3 3 3 4 4 4 3 2 4 2 1 2 6
20 22 22 23 25 26 26 28 28 29 31 29 20 6 2 0 2 3 7 8 5 4 2 2 3 3 4 3 4 4 2 2 4 4 4 3 1 0 2 3 3 3 2 2 6 6 4 5 5 5 4 4 8 9 3 2 2 2 3 4 5 2 1 2 1 4 4 3 3 3 2 2 3 4 3 4 2 2 2 2 2 2 4 3 3 3 6
19 21 22 22 23 25 25 27 27 26 27 26 15 3 0 1 1 3 6 9 6 3 2 1 1 5 5 4 5 4 2 3 5 6 5 3 1 2 3 3 3 3 2 3 7 6 5 5 3 4 5 5 8 7 4 7 5 5 7 8 6 2 2 3 1 1 1 1 1 2 2 3 3 2 3 4 2 5 5 2 3 3 4 5 5 4 6
17 19 21 21 22 24 24 26 27 24 24 23 13 3 1 2 2 3 5 7 6 2 1 3 2 3 4 4 4 3 4 5 5 5 3 2 2 2 3 2 0 2 5 7 9 6 6 7 5 5 5 4 6 9 9 7 9 12 13 12 7 1 2 4 4 4 4 4 5 4 1 1 3 4 5 5 7 11 10 6 5 5 4 3 4 4 5
16 17 20 21 22 23 23 25 26 23 22 20 11 3 3 2 1 2 3 3 3 3 3 4 2 2 1 1 3 4 6 7 5 4 2 4 6 3 3 1 2 4 7 9 9 7 6 8 8 7 6 5 8 13 15 9 11 17 14 11 6 1 2 6 7 8 9 7 8 6 1 1 5 5 8 11 12 13 12 10 7 5 4 4 5 4 3
15 15 18 20 20 22 23 24 24 22 21 17 8 2 3 3 1 1 1 1 1 1 3 4 4 4 2 1 2 4 6 7 6 5 5 5 6 3 1 3 4 6 6 5 6 8 10 8 6 5 4 6 10 11 10 7 3 10 9 7 4 1 2 4 6 8 11 9 10 8 3 4 6 6 9 13 15 14 14 13 9 7 6 5 6 5 5
14 14 16 18 18 19 21 23 24 22 19 15 11 5 2 2 1 1 2 1 2 3 4 5 5 5 3 1 2 3 5 6 5 4 5 7 5 1 2 8 10 10 7 3 4 6 8 9 9 7 5 6 7 6 5 5 5 5 5 4 2 0 3 4 6 6 9 9 8 6 4 4 5 7 9 11 13 13 13 11 8 7 7 6 6 7 8
14 13 14 16 15 16 20 21 22 22 18 14 13 8 3 2 1 2 2 2 3 3 3 4 3 3 3 2 3 2 3 4 6 5 4 5 5 2 4 10 13 13 9 4 6 9 8 11 13 11 9 8 5 2 3 1 3 3 2 2 1 1 3 2 5 4 6 7 7 6 5 3 3 7 9 8 8 8 8 7 5 5 6 6 5 5 7
13 11 12 13 13 14 17 19 20 21 20 14 10 7 7 4 1 2 1 3 2 1 3 2 2 2 2 2 3 4 4 5 8 7 5 7 5 4 7 12 12 12 11 8 10 12 10 13 17 14 11 9 5 3 3 1 2 2 1 1 1 3 2 2 1 2 3 5 6 6 3 2 3 7 8 6 5 5 5 5 5 6 6 5 4 3 5
12 10 9 11 12 12 14 17 18 18 19 15 7 4 8 7 3 3 1 2 2 1 2 2 1 2 2 2 2 3 6 7 7 6 3 5 7 6 6 10 9 9 13 13 13 14 14 18 19 14 11 11 9 8 9 6 4 2 1 1 2 3 2 2 1 3 4 3 3 2 3 5 3 5 5 5 5 3 3 4 5 4 3 4 4 4 4
12 10 8 9 11 11 11 14 15 15 17 16 8 4 7 6 3 1 1 2 2 2 2 2 1 1 3 4 4 4 8 8 5 3 4 5 8 6 6 9 7 6 10 12 13 16 18 19 16 11 7 8 8 8 9 10 8 5 3 2 2 2 2 2 2 2 4 4 4 3 4 1 4 4 3 4 4 3 4 6 8 7 4 3 4 3 3
11 11 9 8 9 10 9 11 12 11 13 14 10 6 6 5 2 1 1 2 3 2 2 2 2 3 5 6 5 6 9 10 7 6 6 9 11 9 7 7 5 5 9 14 17 18 14 10 7 5 4 3 4 6 7 9 9 6 6 5 4 3 3 2 1 2 3 3 4 3 1 2 3 3 4 6 5 5 6 9 10 7 4 5 5 4 5
11 11 9 7 8 9 8 9 9 7 8 11 11 8 6 5 2 1 1 2 3 2 3 5 5 5 7 7 6 8 10 10 11 9 8 9 10 9 6 3 4 8 13 17 18 14 9 5 3 3 3 2 1 2 5 8 8 6 6 8 7 3 2 2 1 2 2 3 2 0 3 3 3 5 5 4 3 4 5 7 6 1 2 5 6 6 6
11 11 9 8 8 8 7 8 7 4 4 8 9 7 7 6 3 1 1 2 3 3 3 6 6 5 6 6 6 8 9 8 8 7 6 6 7 9 7 4 9 13 13 12 10 6 4 3 3 4 5 5 4 3 4 4 4 3 4 6 8 6 3 1 2 1 0 1 3 2 2 4 3 2 3 2 2 3 3 4 4 1 2 4 6 6 7
11 11 9 8 8 8 6 7 7 3 1 4 7 5 5 6 4 1 0 1 4 4 2 3 4 5 7 7 6 6 7 6 6 5 4 4 6 7 6 8 16 17 10 5 4 4 3 2 4 4 4 5 4 4 5 5 3 3 4 2 4 6 4 1 1 2 1 1 3 3 3 3 4 3 4 4 5 5 4 3 4 2 1 2 3 6 8
12 11 10 8 8 9 7 6 7 5 1 2 6 4 2 4 4 2 1 1 2 3 3 4 4 5 6 6 5 4 3 4 7 7 4 3 4 7 7 10 16 14 6 2 3 3 3 3 3 3 3 3 4 4 4 6 6 6 6 6 4 1 1 1 1 2 1 2 2 2 2 4 4 3 5 6 4 5 4 2 3 3 2 2 3 5 8
12 12 11 9 9 10 8 6 6 6 3 3 4 5 4 3 3 2 1 1 2 4 4 3 1 2 3 3 3 3 2 2 4 4 4 4 7 9 10 10 10 8 5 4 3 3 4 4 3 3 2 2 4 5 4 5 7 9 10 10 7 4 3 2 1 3 2 0 1 3 3 3 3 3 7 9 5 1 3 2 3 3 5 4 2 5 7
13 12 12 11 10 10 10 8 6 6 4 4 5 7 7 4 2 2 1 1 3 4 4 2 0 1 3 3 3 2 1 1 2 3 5 5 5 6 8 8 6 5 5 5 3 3 5 4 3 3 2 3 4 4 4 5 5 6 7 7 5 3 3 2 1 3 2 1 2 3 3 3 3 4 7 10 6 2 3 3 4 5 8 6 3 4 5
13 13 13 12 11 11 10 9 7 5 5 5 7 8 7 5 5 5 2 2 2 4 5 5 6 7 6 4 3 3 2 2 2 3 5 4 3 6 8 4 2 4 5 4 3 2 3 3 3 2 3 4 3 3 4 4 3 4 5 5 3 3 3 2 1 3 2 1 2 3 3 2 2 5 7 6 3 1 2 3 4 6 8 7 5 5 5
14 14 13 13 12 11 10 10 8 6 5 6 7 9 9 8 8 7 5 3 4 6 8 9 11 11 8 5 4 4 3 2 2 2 2 3 3 7 6 2 2 4 4 3 4 2 2 3 3 2 2 3 2 2 4 4 3 3 4 4 2 2 3 3 2 2 2 1 1 2 2 2 3 6 7 3 1 3 5 5 7 8 7 6 5 6 6
16 15 15 14 13 12 11 11 10 8 7 7 8 10 11 9 7 6 7 7 5 4 5 6 9 14 14 12 13 12 9 7 7 4 3 3 1 4 1 2 3 4 2 2 3 1 1 2 2 1 2 3 2 3 5 5 4 3 2 2 2 1 1 3 2 1 2 2 2 2 4 6 7 6 4 3 5 6 6 6 7 6 5 4 4 6 6
18 17 16 15 14 13 12 11 10 9 8 7 8 10 10 10 7 6 10 13 10 10 14 19 22 26 28 27 25 24 22 22 20 14 6 3 1 2 3 4 3 2 2 1 1 1 2 2 2 2 3 2 2 4 5 3 3 3 2 1 2 1 1 3 3 2 1 3 5 6 7 9 9 5 5 8 9 7 5 5 6 5 3 2 4 7 8
21 20 18 17 16 14 13 12 11 10 9 8 9 11 11 12 10 9 13 14 12 13 22 25 22 22 23 19 15 15 18 23 27 24 15 7 2 3 5 5 3 3 2 1 1 0 2 2 2 2 3 2 2 3 3 2 2 3 4 3 2 2 2 3 3 4 3 5 7 7 7 10 10 7 6 7 7 5 5 5 5 4 4 3 4 6 8
23 22 21 19 18 16 14 12 11 10 9 8 10 12 13 13 12 11 11 9 4 6 11 10 5 7 10 8 7 8 12 16 21 23 22 16 7 2 3 4 4 2 3 3 1 2 1 2 2 1 2 3 2 2 2 2 2 2 4 4 3 4 5 5 4 5 5 5 6 6 9 12 11 8 8 8 7 6 5 5 5 5 5 5 5 6 6
24 23 22 21 20 18 15 13 12 11 10 9 10 11 12 12 10 9 8 5 1 3 4 4 4 7 8 9 12 15 15 14 15 17 21 23 19 10 6 5 6 5 3 2 2 3 1 2 2 2 3 3 2 1 1 2 2 3 3 4 4 6 7 7 7 7 5 7 9 10 11 10 8 7 8 8 8 8 7 5 5 6 6 6 6 5 5
24 22 22 21 20 19 17 15 13 12 10 9 10 11 12 12 11 9 8 5 1 2 4 5 6 7 9 15 20 18 14 13 14 16 21 25 28 26 18 9 7 7 4 2 3 1 2 2 2 2 3 2 2 2 2 3 3 3 1 3 6 7 7 8 8 8 5 6 8 13 11 8 6 10 11 9 8 9 9 7 7 7 7 7 7 6 5
24 22 21 21 20 20 18 16 14 12 10 9 10 11 13 14 14 13 12 7 2 1 3 4 5 9 14 19 21 18 12 11 13 16 20 23 26 28 23 13 7 6 3 2 2 1 2 2 2 4 3 2 2 2 3 3 3 2 1 4 7 7 7 8 7 5 5 7 11 13 10 7 7 11 13 11 9 9 10 9 9 9 9 9 9 9 8
23 21 21 20 20 19 19 18 15 13 10 8 9 11 13 15 15 15 15 13 8 3 3 3 7 15 17 15 17 18 16 13 13 15 20 22 23 24 21 13 7 4 3 2 1 1 3 3 3 3 3 2 1 2 2 2 1 2 3 7 8 6 6 8 6 4 7 11 14 12 8 7 8 10 11 11 9 9 10 9 8 8 8 6 6 7 8
22 20 20 19 19 19 19 18 16 13 10 7 7 8 11 12 11 11 11 13 13 6 3 4 7 9 9 12 19 21 17 12 11 15 19 19 19 20 18 12 7 4 4 3 2 2 3 3 3 2 2 2 1 2 2 2 2 1 4 9 10 8 6 7 7 8 10 11 13 13 9 8 10 12 12 10 8 7 8 9 7 7 8 7 6 6 6
20 19 18 18 18 18 18 18 16 13 10 8 5 4 4 4 5 6 5 8 12 8 1 3 4 4 6 10 15 17 17 15 12 14 17 16 14 16 16 11 6 5 4 2 2 3 2 2 2 3 3 2 2 1 1 2 2 1 4 10 12 12 10 9 7 8 9 10 12 12 10 8 9 10 9 9 8 7 6 6 6 7 7 8 7 6 6
17 17 17 16 17 17 16 17 16 13 11 10 6 1 1 1 3 5 7 8 7 5 1 2 4 5 5 5 6 11 20 20 14 10 12 12 11 13 15 11 6 6 6 3 2 2 2 2 2 3 3 1 2 1 1 2 2 4 8 12 12 11 12 11 9 8 9 10 13 12 8 7 7 7 7 10 12 9 6 5 6 7 8 8 7 6 7
16 15 14 14 15 15 15 16 15 14 15 15 10 6 3 1 3 8 11 8 2 1 0 2 3 3 3 4 7 11 16 14 9 6 5 6 5 5 9 9 5 5 6 4 1 3 3 2 2 1 2 1 2 2 2 2 2 7 11 12 10 10 12 11 10 9 9 10 12 11 9 11 12 10 9 11 11 9 8 7 8 9 9 8 8 8 9
14 13 13 13 13 13 14 15 15 14 14 14 14 14 11 8 8 10 10 7 4 1 2 1 3 3 3 5 7 8 8 6 4 5 3 3 3 3 4 4 3 3 5 4 2 3 2 2 2 1 2 2 3 2 2 3 5 9 12 11 10 12 13 12 11 11 11 12 11 8 8 12 13 11 9 9 9 8 8 8 9 10 8 8 9 10 9
13 11 11 11 11 12 13 13 13 12 11 10 13 15 13 11 12 14 16 12 4 0 1 1 2 3 3 4 4 4 6 4 2 3 3 3 1 1 2 2 2 2 4 3 2 1 1 2 2 1 2 3 3 2 2 5 9 11 11 10 11 12 13 12 11 12 14 13 11 8 8 10 10 9 9 10 11 10 9 8 10 11 9 8 8 8 6
11 10 10 9 9 10 12 12 13 12 9 8 10 9 7 6 7 10 15 14 5 1 1 2 1 3 3 4 4 4 5 4 2 2 2 3 2 1 2 2 0 1 2 2 1 1 1 0 1 2 2 3 3 3 3 7 11 12 11 11 13 13 13 12 13 14 14 13 11 10 10 11 12 12 12 11 11 12 10 9 10 11 10 9 8 7 6
11 10 10 10 11 12 11 11 12 11 7 6 7 5 3 4 4 6 14 15 6 1 2 1 1 2 1 1 4 5 7 5 3 2 2 2 3 2 2 3 1 2 1 2 1 1 2 1 2 3 2 1 3 3 4 7 10 11 11 11 12 11 11 12 14 15 15 13 12 13 15 15 14 13 11 11 11 11 11 11 11 11 10 9 8 8 6
12 13 14 14 14 10 6 6 9 10 7 6 4 4 5 6 5 5 9 9 5 3 2 1 2 3 2 2 4 4 5 3 3 3 3 2 2 2 2 2 1 2 1 3 1 1 1 2 2 3 2 2 4 3 5 6 7 9 9 10 11 10 10 11 13 15 15 14 14 15 15 15 14 13 12 13 12 11 11 10 8 7 8 8 7 7 6
16 17 18 16 10 4 1 4 7 10 10 9 7 5 3 3 3 2 3 3 3 3 2 2 3 2 3 2 4 2 2 2 3 3 2 2 2 2 1 1 1 1 1 2 2 1 2 3 2 3 2 2 4 4 6 6 5 5 7 8 9 10 10 11 12 14 14 12 13 14 14 14 15 14 13 13 12 10 9 8 6 6 7 7 6 6 6
21 18 13 9 4 2 3 5 7 10 11 9 5 2 1 1 1 0 1 0 1 2 2 3 4 3 4 4 5 4 2 2 2 3 2 2 1 2 1 1 1 1 2 2 3 1 3 2 1 2 2 1 3 4 5 6 4 4 6 7 8 9 9 9 10 11 10 8 10 11 10 10 12 12 12 12 11 9 9 8 7 7 7 7 8 7 5
20 14 7 3 3 4 7 9 10 10 9 5 2 1 1 0 1 1 1 1 2 2 2 3 2 2 4 5 4 4 3 4 1 1 2 2 1 0 1 1 1 1 2 2 3 1 3 1 1 1 1 2 4 4 5 5 5 5 7 8 10 12 11 10 11 11 9 8 8 9 8 9 9 9 9 10 10 10 10 10 9 9 10 10 11 9 7
16 10 5 5 7 9 11 12 10 6 3 1 1 1 1 1 1 1 1 1 3 3 2 2 1 2 3 5 4 4 4 4 2 1 0 2 2 1 1 2 1 1 0 3 2 2 3 2 1 1 1 3 4 5 6 6 6 7 9 9 11 13 14 13 13 14 12 9 8 8 10 11 10 9 9 10 9 8 9 9 11 13 14 13 14 14 14
15 12 10 11 13 12 9 7 4 1 1 1 1 1 1 1 1 1 1 2 3 2 1 3 3 3 4 5 5 4 3 2 1 2 1 3 2 0 0 2 1 1 2 3 1 3 3 1 1 1 2 3 4 5 7 8 8 9 10 10 11 13 14 13 13 14 14 12 10 11 13 14 13 12 13 13 11 10 10 10 12 15 18 17 17 17 19
16 15 14 12 9 6 4 2 1 1 1 1 0 1 1 1 1 1 2 2 2 1 2 2 2 2 2 3 3 3 3 2 1 1 1 2 2 1 2 1 1 1 2 1 3 3 2 1 1 1 2 3 4 5 7 8 8 9 10 11 13 15 16 15 13 14 15 15 14 15 15 15 15 15 16 16 15 14 14 15 17 18 20 19 17 18 21
16 11 7 4 2 1 2 2 1 1 2 2 2 2 2 2 2 2 2 3 2 2 3 3 2 2 2 2 2 1 2 2 1 0 1 2 1 2 1 1 3 2 0 2 3 1 1 1 1 2 2 3 4 5 6 7 8 8 9 11 14 16 17 17 15 13 14 15 16 17 17 16 16 17 18 19 19 17 16 19 22 24 23 19 18 20 24
10 3 2 2 1 1 1 1 1 2 3 3 3 3 3 3 3 4 4 3 2 1 1 2 3 3 3 2 1 1 1 0 0 1 1 1 1 0 1 2 2 1 3 2 1 1 1 1 1 2 3 3 4 5 6 6 7 8 8 9 12 13 14 13 12 11 11 14 16 16 16 16 17 17 17 19 21 19 18 20 22 24 22 20 20 22 24
3 1 3 3 1 2 2 2 2 2 3 3 4 4 4 4 4 4 3 3 2 1 2 1 3 3 3 2 1 0 1 1 0 1 0 2 0 2 3 1 1 3 3 1 1 1 1 1 1 1 3 3 4 5 5 5 6 7 7 7 9 10 11 12 11 11 12 14 15 15 15 16 16 16 15 17 20 21 21 22 22 22 21 20 19 20 22
1 1 2 1 1 2 2 3 3 3 3 3 3 4 4 3 3 3 3 3 3 2 1 1 2 1 1 1 1 1 2 1 0 2 0 1 1 2 1 1 1 1 1 1 1 1 1 1 1 1 2 3 3 4 5 5 5 6 6 6 7 8 10 11 11 12 14 16 15 15 15 16 17 16 15 16 19 21 22 22 23 24 23 21 20 21 23
2 2 1 1 2 2 3 3 2 2 2 2 2 2 2 2 1 3 4 3 2 2 2 3 2 0 2 1 0 1 1 1 1 2 1 1 0 1 2 1 0 1 1 1 1 1 1 1 1 2 2 3 3 3 3 4 5 6 6 6 7 8 9 9 9 12 14 15 15 14 15 16 17 17 15 14 16 19 22 22 22 24 25 24 23 24 24
2 2 1 1 1 2 2 3 2 2 3 2 1 1 1 2 3 5 4 2 2 3 3 3 3 1 2 1 1 0 1 1 1 1 1 2 1 1 0 0 1 2 1 2 1 1 2 1 1 2 2 2 2 3 3 3 4 4 5 6 7 8 9 9 10 12 14 14 14 14 15 16 16 17 16 15 14 16 20 21 22 23 25 26 25 24 24
2 1 1 1 1 2 1 2 2 2 3 1 1 2 2 3 4 4 3 3 3 2 2 2 1 1 1 0 2 1 2 1 1 1 1 0 1 1 1 1 2 2 2 2 2 2 2 3 2 2 1 2 2 2 2 2 2 3 5 6 8 9 9 10 11 12 13 14 15 15 15 15 16 17 16 15 14 14 17 21 23 21 21 24 26 26 25
1 0 1 2 2 3 2 3 2 3 2 2 2 3 2 2 4 4 3 4 4 4 2 1 1 2 2 1 0 0 1 0 1 1 1 1 1 2 1 2 3 3 3 2 2 3 2 2 2 2 2 2 1 1 2 2 3 4 6 7 8 9 10 11 11 11 12 14 15 15 15 15 15 15 15 15 15 14 15 19 23 22 20 20 23 24 23
1 1 1 2 2 3 3 2 1 2 2 2 2 2 2 2 4 3 1 4 4 3 2 2 2 3 1 2 1 0 0 1 1 0 1 2 1 2 3 4 3 3 3 3 3 3 3 2 2 3 3 2 0 1 2 3 4 5 6 8 9 9 9 10 11 12 11 12 14 15 14 14 14 14 15 16 17 15 13 15 19 21 20 18 19 19 20
Wind_Direction
352 352 351 350 351 353 358 4 5 3 359 356 356 358 16 63 286 332 2 354 345 30 66 352 13 162 271 293 274 272 283 284 287 308 328 316 329 14 286 239 218 237 240 254 292 301 290 264 245 258 270 242 243 245 187 134 241 138 143 189 145 123 164 235 276 287 272 267 264 266 271 214 243 256 219 149 162 178 184 208 212 240 271 278 58 280 266
350 349 349 350 351 353 1 5 4 5 2 355 353 5 93 41 262 311 5 358 1 62 81 328 332 312 307 305 293 294 279 272 291 299 302 303 311 234 268 247 210 243 257 242 277 295 289 258 243 250 270 258 260 260 203 178 246 182 187 169 147 162 180 172 308 332 323 332 2 343 328 174 207 240 194 161 201 258 278 250 185 205 240 196 147 235 254
349 348 347 349 352 353 0 6 5 5 1 353 354 17 180 5 297 282 351 12 32 92 128 122 316 319 331 319 302 313 288 263 283 288 275 260 221 221 271 261 203 244 282 256 269 272 246 248 250 246 264 278 288 294 219 193 206 222 202 160 141 187 175 136 143 170 165 139 193 233 219 194 218 239 187 155 189 239 255 239 180 211 232 179 168 229 277
348 348 346 347 351 353 358 5 6 5 359 353 356 17 0 36 34 313 335 14 43 75 88 89 82 322 337 321 306 332 328 297 294 293 274 301 338 252 256 299 246 288 324 318 301 281 232 235 251 268 278 280 294 305 290 234 206 211 196 157 132 156 200 196 204 210 214 206 212 219 163 200 232 208 195 202 212 216 220 218 199 199 205 204 215 238 292
344 348 346 345 351 354 357 3 7 8 3 354 352 23 46 57 58 4 344 344 15 20 14 52 44 317 330 318 310 336 333 321 321 312 297 343 343 302 228 38 15 326 335 329 306 300 285 255 252 271 275 278 297 302 303 283 210 200 183 152 139 142 224 218 217 235 249 249 251 259 277 242 243 208 192 212 227 221 214 223 222 181 176 252 249 199 240
338 345 346 345 352 357 356 359 6 12 8 0 3 41 39 53 113 105 40 313 328 352 334 354 345 306 247 213 316 336 337 340 342 320 310 330 336 323 298 332 325 315 326 320 292 305 312 293 281 291 270 291 315 310 314 332 181 173 159 152 162 174 241 214 200 239 257 257 260 261 239 237 247 229 209 216 227 224 212 219 216 168 169 232 238 216 240
330 339 344 347 355 360 356 356 5 14 12 17 43 55 10 57 65 322 18 341 237 241 291 322 331 308 269 272 336 338 327 330 329 305 310 321 314 301 309 307 313 319 316 296 276 298 313 306 305 317 302 297 311 302 307 353 41 99 137 184 195 221 257 212 186 241 269 267 268 261 226 240 254 248 238 225 223 221 216 222 210 178 189 215 225 251 267
323 333 342 346 353 1 358 354 3 14 16 29 55 51 13 56 15 317 352 309 263 253 294 323 330 316 323 324 311 300 289 312 324 304 270 286 299 314 306 304 312 315 307 278 254 260 272 281 284 297 309 300 291 257 247 297 18 48 113 221 236 205 260 226 172 225 268 258 263 256 217 216 270 277 272 251 230 223 228 237 207 185 222 225 212 254 274
319 329 340 344 350 359 358 355 2 14 20 35 59 42 17 29 347 329 335 299 298 278 294 332 352 319 335 339 317 315 303 316 329 310 233 220 255 286 307 310 314 310 303 289 270 268 271 273 273 274 272 262 247 250 252 248 15 18 92 325 255 203 265 325 148 250 262 228 246 260 265 2 312 291 302 295 252 224 228 239 216 205 218 212 207 251 268
320 325 334 342 348 355 359 359 3 14 25 38 61 30 13 17 4 24 44 289 329 354 305 341 16 303 278 290 314 296 288 306 327 319 279 231 239 245 287 307 311 309 304 299 296 299 297 286 282 277 260 243 233 241 253 260 286 288 211 303 229 198 257 311 290 283 283 277 271 260 48 28 310 273 298 295 273 271 282 275 265 252 211 182 210 236 247
322 323 327 339 346 351 0 2 4 14 24 33 51 40 14 12 348 18 51 308 318 6 349 339 3 344 307 310 319 283 282 302 313 293 303 295 272 264 289 298 292 283 283 287 298 303 294 282 277 276 265 245 227 224 244 257 256 236 214 238 244 203 205 256 277 265 282 329 4 53 77 74 243 242 242 242 252 287 299 286 282 285 282 234 240 261 298
317 317 319 328 337 345 357 0 4 16 20 21 33 38 25 24 342 300 26 339 310 341 353 288 249 276 293 297 303 289 286 295 289 259 258 278 286 290 290 285 275 269 283 298 308 309 303 292 281 276 267 237 202 195 221 247 253 236 215 223 249 244 213 237 266 239 275 351 37 48 13 228 234 258 240 228 236 249 263 274 270 265 292 309 306 314 319
309 309 308 312 322 335 350 354 359 17 20 12 21 31 29 34 30 305 4 324 288 289 313 288 266 266 280 280 278 279 279 281 280 269 254 258 276 288 281 251 256 281 299 309 311 315 322 327 320 305 312 358 66 175 221 247 257 250 219 213 221 232 231 239 233 234 300 354 31 336 279 272 290 301 275 258 277 282 291 299 285 200 47 335 318 317 322
300 299 296 297 307 319 335 344 346 8 25 6 13 31 36 40 52 26 2 324 276 264 285 294 294 292 290 292 292 290 290 286 277 267 249 243 263 275 272 263 279 290 302 308 310 328 351 341 342 341 345 4 11 339 304 285 258 258 265 234 214 203 204 250 283 278 336 318 282 286 318 306 298 287 274 252 228 264 297 304 280 184 69 328 313 320 332
293 294 290 289 295 301 312 329 333 340 69 1 1 25 41 40 47 46 1 321 298 293 247 245 292 322 315 307 309 308 309 314 309 290 265 243 251 261 265 287 297 300 302 307 330 8 14 357 8 8 2 2 347 319 326 333 307 284 309 297 201 200 216 253 308 305 51 33 308 329 354 300 258 232 257 239 205 220 244 261 262 247 199 290 315 326 332
287 290 287 282 286 291 294 304 316 314 224 314 341 355 19 30 32 7 295 279 288 286 242 225 259 303 301 292 299 303 301 318 326 319 301 279 286 288 289 296 300 303 310 350 16 20 19 17 12 2 3 352 323 305 322 334 321 311 335 14 46 133 250 30 7 297 345 40 324 306 269 260 261 271 291 289 249 218 212 236 264 268 280 306 349 340 334
279 282 281 276 276 283 281 278 296 304 272 246 305 323 320 335 6 0 322 232 248 269 273 262 264 304 295 292 305 291 247 290 322 320 310 315 317 313 315 318 315 318 350 15 21 29 30 23 0 340 349 345 325 311 312 328 328 326 337 355 12 17 0 11 346 297 299 163 269 269 242 255 284 306 317 321 320 158 144 205 259 301 327 330 354 345 339
272 275 276 272 268 273 274 268 275 289 279 252 265 288 296 303 320 319 232 238 278 274 256 229 157 301 262 254 283 283 252 294 307 289 291 297 301 309 319 327 327 335 4 20 27 32 29 18 354 338 333 335 337 326 318 326 326 318 322 331 338 336 335 347 319 290 278 222 256 272 265 271 290 312 322 326 335 67 131 218 257 311 323 316 323 328 325
267 269 271 269 267 267 267 263 262 270 276 268 266 274 281 286 298 294 254 206 255 261 255 263 279 276 259 248 266 269 256 267 269 288 300 292 287 308 311 305 306 332 355 17 23 32 35 11 336 318 321 332 343 334 317 314 301 297 313 324 325 317 318 318 297 297 295 217 245 281 287 264 269 305 315 324 336 307 249 255 289 315 313 310 318 305 287
265 265 265 265 266 264 260 257 253 253 264 266 266 271 272 277 287 282 253 231 259 276 274 264 257 254 246 230 235 250 275 280 237 221 259 261 319 347 338 311 335 337 340 11 13 17 36 357 326 319 328 322 322 323 315 303 282 286 316 333 322 288 308 310 290 295 313 298 286 313 311 265 286 317 326 349 0 275 280 299 310 307 305 306 305 289 284
266 263 259 260 263 260 256 252 247 245 250 254 259 267 273 279 283 279 276 272 266 276 282 263 257 260 257 249 245 243 243 243 233 215 227 254 326 31 355 266 328 344 332 4 3 343 357 335 311 323 322 299 298 325 320 316 302 274 264 290 281 260 313 315 300 308 339 337 326 298 275 279 295 313 308 278 267 268 276 298 298 290 298 308 294 288 294
265 263 258 255 257 257 255 251 245 243 243 245 251 257 266 275 278 288 293 280 257 255 271 277 280 279 275 271 265 254 246 246 247 245 246 271 263 187 228 271 299 269 259 353 11 325 349 352 312 304 302 283 294 309 301 298 308 305 309 324 316 334 328 292 285 284 271 270 267 263 276 293 301 297 270 269 279 283 283 286 287 290 307 317 299 299 306
263 261 257 253 251 252 254 250 243 240 239 239 244 246 256 270 276 292 296 282 264 267 274 277 282 283 279 278 275 260 250 248 248 245 238 233 250 235 235 255 263 242 246 223 136 288 312 297 284 299 290 261 266 297 298 278 280 308 328 322 293 303 315 288 280 293 284 261 259 269 301 312 310 306 299 291 296 310 313 303 302 310 313 308 296 294 298
264 258 253 250 247 247 248 246 241 239 236 235 241 248 259 271 280 293 295 283 284 301 286 278 284 278 276 291 310 292 266 251 250 250 238 219 211 269 255 224 209 211 258 250 189 84 344 281 285 300 283 273 271 295 307 283 269 316 336 322 304 317 329 324 314 323 327 303 293 321 332 320 316 323 329 331 339 340 327 314 309 309 311 304 292 285 289
267 261 253 248 244 242 244 245 240 237 237 237 239 248 259 269 279 291 290 278 309 325 304 301 287 276 290 306 298 291 286 275 268 258 237 217 210 221 237 216 202 208 240 278 21 42 346 285 298 297 286 288 284 269 258 266 307 349 347 339 336 327 330 337 332 326 310 280 295 327 329 309 312 338 338 339 346 334 322 323 320 313 314 310 296 289 305
270 266 258 250 243 238 240 242 239 235 236 238 242 247 254 263 272 278 280 284 298 267 272 283 278 284 316 314 301 297 299 287 268 254 240 228 223 228 237 245 246 254 274 355 16 348 235 243 254 245 249 257 257 267 255 260 299 323 340 357 341 319 320 335 326 310 292 276 307 335 332 305 322 348 341 338 342 330 322 329 336 331 332 334 329 329 343
271 266 261 253 244 236 237 240 239 236 233 237 246 251 255 263 269 271 271 266 237 255 271 261 277 302 311 305 301 306 307 287 268 254 246 237 230 229 234 241 253 262 273 319 319 240 201 224 234 217 224 252 273 275 254 250 280 324 22 3 350 337 338 342 330 318 326 321 323 333 331 311 320 334 330 328 335 332 324 331 346 347 343 343 341 339 344
270 266 260 254 245 235 232 236 238 236 233 238 249 256 264 269 272 276 272 255 232 243 291 266 289 305 305 297 300 308 307 293 276 259 248 241 232 226 226 228 235 229 197 207 255 196 183 208 221 219 235 256 271 273 263 271 331 21 19 359 352 348 337 326 310 297 304 307 313 322 321 300 300 312 318 322 329 331 323 325 340 340 332 334 331 320 325
268 264 258 253 246 234 228 231 234 231 226 232 248 266 279 277 269 270 268 243 223 227 305 297 283 294 299 299 303 307 307 300 282 261 251 243 231 223 220 220 219 199 172 176 197 200 213 220 217 232 237 208 215 276 307 357 351 23 29 0 342 332 322 305 290 292 299 306 318 322 311 292 294 304 310 313 320 327 319 316 325 329 328 333 328 313 327
265 261 254 250 244 235 225 225 227 224 216 216 229 272 302 289 252 248 243 211 203 207 271 315 285 290 303 299 298 303 310 313 300 268 250 238 227 222 218 213 200 180 172 185 200 204 237 252 245 265 260 210 180 255 329 2 312 273 26 1 340 332 335 328 313 313 316 318 320 314 299 291 299 302 307 319 331 335 315 305 319 329 325 326 328 331 345
259 255 250 245 240 234 224 219 220 217 206 196 186 170 348 290 215 189 153 146 171 198 212 274 273 294 304 282 274 300 310 312 308 281 251 235 228 222 210 197 183 177 178 190 217 206 220 242 244 275 283 198 141 123 66 32 326 322 351 354 343 335 333 329 325 325 325 325 326 319 308 315 331 338 339 335 335 334 324 319 333 333 323 323 335 345 349
251 246 243 239 235 231 221 214 213 212 205 201 201 204 199 174 175 167 153 140 150 217 222 293 291 304 312 287 283 301 306 303 305 311 270 223 208 197 185 178 176 178 168 158 196 220 216 207 204 266 330 44 92 83 67 61 0 333 339 344 341 335 331 327 326 331 337 343 343 337 333 339 345 344 329 319 322 330 333 333 334 330 325 333 348 359 3
240 235 232 230 229 224 216 208 207 210 212 217 230 239 240 242 239 226 223 244 276 234 159 292 304 283 283 297 301 317 327 317 317 346 328 226 177 134 159 165 154 169 175 173 198 222 212 171 166 180 2 39 71 88 82 37 355 339 337 340 341 339 334 330 332 339 344 346 346 341 329 324 320 312 306 313 326 333 333 337 344 344 347 359 4 2 6
228 225 220 218 217 212 206 198 197 204 212 223 241 254 260 256 251 245 240 240 252 67 172 216 292 277 293 320 315 337 6 352 316 346 338 289 227 119 166 161 115 164 197 200 212 242 226 197 174 109 7 7 36 75 55 355 346 341 339 342 345 343 338 336 341 346 343 338 334 328 318 314 315 324 335 340 340 337 339 356 5 2 3 11 5 356 1
215 206 201 200 197 192 188 184 186 193 201 219 239 263 276 256 240 229 217 205 178 79 226 199 238 279 312 336 302 313 357 352 280 263 286 285 315 19 137 139 101 244 203 176 211 281 290 205 119 66 2 353 35 48 349 333 339 343 347 348 349 351 349 344 339 336 331 326 324 329 338 347 353 354 348 341 339 338 343 2 14 12 9 5 356 352 4
192 182 177 174 169 166 166 174 184 189 199 225 239 248 222 199 194 189 195 195 192 202 197 155 190 229 229 288 274 307 348 344 286 276 290 291 319 347 84 94 322 260 176 85 43 303 338 8 81 65 5 24 71 34 338 334 341 345 350 349 348 352 351 339 331 326 323 324 335 347 352 357 358 352 343 341 342 340 344 357 7 10 7 357 348 348 351
170 161 155 152 151 148 149 175 193 197 192 180 165 143 143 145 127 142 178 196 217 220 177 174 234 213 174 219 257 309 349 326 301 328 325 297 309 332 40 56 303 263 9 27 15 133 18 7 77 77 43 91 95 38 348 346 346 344 348 348 346 349 348 338 333 331 330 336 350 356 353 351 351 349 345 343 341 341 347 352 350 351 354 351 343 340 335
156 154 151 145 138 132 183 202 197 194 182 158 134 118 126 124 108 132 168 192 230 216 175 213 240 197 141 213 252 289 321 301 340 0 313 271 307 326 5 37 292 275 3 319 264 144 57 24 62 92 107 119 97 44 354 342 337 342 349 346 345 349 346 339 341 346 345 346 348 348 345 344 343 341 338 336 335 334 337 338 333 339 350 348 338 334 334
156 153 149 145 142 148 173 169 162 161 163 162 159 161 146 82 77 162 180 197 234 218 198 226 231 189 169 214 258 274 241 242 350 345 293 285 320 316 335 344 308 0 38 300 271 52 58 19 9 91 106 57 39 18 347 332 333 353 355 348 347 347 345 343 346 347 344 334 326 326 329 330 327 324 326 332 335 334 332 337 346 348 346 343 343 345 348
155 146 132 144 168 141 133 140 142 138 137 146 165 158 114 120 176 177 175 212 224 224 211 207 221 205 187 205 254 272 213 187 188 259 259 269 271 248 25 311 266 32 38 286 275 51 85 92 327 58 73 0 358 359 346 338 348 1 358 354 350 347 347 349 346 336 329 324 320 319 320 318 313 315 324 332 338 341 338 339 343 342 341 345 345 343 348
154 147 140 157 156 140 130 133 139 136 119 110 137 131 141 235 217 151 136 196 231 251 231 166 183 260 217 192 211 251 237 217 194 142 195 282 284 80 55 285 279 60 327 259 273 52 81 98 77 61 46 7 356 350 343 344 355 0 357 354 353 350 349 349 345 339 339 340 336 334 337 334 331 334 338 339 343 344 338 336 339 339 341 342 338 338 350
163 155 142 135 134 134 134 136 143 147 92 91 132 193 203 221 218 185 200 211 219 238 222 170 185 225 205 175 185 225 236 222 165 93 100 274 274 143 179 301 13 62 241 251 343 52 60 78 101 102 65 23 1 353 350 351 356 357 352 351 355 356 353 348 342 342 347 350 345 342 344 344 344 347 348 349 351 351 348 347 344 339 337 338 340 347 357
150 137 127 122 124 132 145 155 159 147 120 112 155 217 215 242 247 219 241 260 243 204 213 215 209 213 188 174 190 233 239 220 187 110 192 260 284 50 58 15 13 223 238 295 49 59 65 75 78 70 46 20 3 1 359 353 351 353 351 353 359 359 354 347 341 343 351 357 354 348 347 347 349 353 357 0 2 1 358 357 354 349 345 346 353 4 9
135 127 115 106 111 151 167 155 139 152 172 186 186 182 197 233 229 185 205 249 251 203 203 200 175 187 232 221 197 233 246 232 187 157 249 267 322 56 71 268 255 242 102 51 49 53 96 115 91 35 19 11 7 8 2 354 353 353 350 355 1 0 353 349 347 349 354 358 357 353 352 352 353 357 4 10 11 7 2 0 0 0 0 3 9 15 17
131 122 93 84 97 180 182 164 149 180 199 200 190 187 197 204 200 197 207 212 198 187 237 184 153 175 246 269 260 236 262 1 77 253 261 354 17 327 220 230 246 34 54 64 133 162 144 138 101 22 0 358 10 10 1 354 356 355 351 356 2 -0 353 349 349 351 353 354 354 354 355 355 355 357 4 10 13 13 12 8 5 5 8 12 15 16 17
126 128 125 131 185 213 189 169 176 199 214 203 189 193 199 193 192 209 220 202 188 246 285 213 154 175 240 269 281 339 25 64 110 248 180 89 96 251 239 228 36 49 54 52 210 184 171 159 102 16 352 4 19 10 358 357 1 0 360 2 1 356 352 350 350 352 354 356 357 359 359 358 357 356 360 7 14 17 17 16 16 16 16 16 15 14 18
100 123 112 125 186 178 184 205 205 202 206 195 188 200 208 202 208 236 235 208 204 228 247 176 150 186 266 275 263 308 348 40 277 271 320 104 215 281 332 37 36 83 127 195 241 209 162 124 63 6 5 29 32 9 0 8 9 5 7 8 1 355 354 352 353 356 358 359 2 5 3 0 359 358 0 8 14 17 17 20 23 26 26 23 19 18 22
128 142 149 180 178 183 209 219 216 227 230 206 191 201 193 165 231 261 248 215 183 175 171 161 156 290 314 328 264 275 313 355 255 271 295 109 167 327 13 39 312 240 192 188 202 183 154 86 17 14 36 45 35 16 17 21 11 6 10 11 4 359 355 352 354 358 0 3 7 9 6 3 3 2 3 8 13 16 19 23 28 31 32 30 25 20 21
118 136 156 172 183 226 222 186 176 250 262 244 211 229 190 185 240 255 241 180 156 173 176 162 148 174 260 301 37 41 289 273 208 294 5 41 57 300 345 129 238 257 249 224 208 185 161 134 81 54 48 48 35 27 30 26 10 7 11 9 4 0 354 350 355 3 6 9 10 9 7 8 8 7 6 7 9 14 19 24 30 35 38 38 35 28 22
112 134 173 165 180 236 226 149 155 238 261 251 231 223 189 195 245 256 213 159 140 108 97 102 96 115 192 16 41 8 273 249 148 103 28 328 176 157 119 193 223 226 221 210 193 168 145 130 115 91 57 52 46 34 24 12 356 355 0 5 8 6 358 354 360 8 13 14 13 11 11 13 12 8 5 2 1 9 19 24 27 30 35 42 47 45 37
149 159 236 215 196 193 172 148 171 217 229 218 225 219 180 189 233 237 186 143 107 77 87 174 154 61 62 75 67 266 252 239 70 65 244 220 164 133 159 223 227 212 195 183 162 140 130 129 129 123 100 67 36 357 352 357 353 350 356 5 9 7 1 -0 5 11 16 19 18 15 14 13 12 9 7 5 8 15 21 22 20 20 24 33 44 50 50
162 166 228 237 211 187 169 156 210 226 212 208 219 208 176 206 235 237 126 103 104 114 164 182 105 83 108 208 201 155 73 57 46 350 236 220 192 175 194 217 223 197 175 169 153 135 137 141 135 125 121 124 172 303 358 11 4 358 2 8 9 5 1 1 7 11 15 20 21 17 13 10 10 11 14 17 21 23 22 15 13 15 18 24 31 39 44